Regional Weather Roundup
Issued by NWS Little Rock, AR

Home | Current Version | Previous Version | Graphics & Text | Print | Product List | Glossary On
Versions: 1 2 3 4 5 6 7 8 9 10 11 12 13 14 15 16 17 18 19 20 21 22 23 24 25 26 27 28 29 30 31 32 33 34 35 36 37 38 39 40 41 42 43 44 45 46 47 48 49 50
905
ASUS44 KLZK 180505
RWRLZK

WEATHER ROUNDUP FOR ARKANSAS
NATIONAL WEATHER SERVICE LITTLE ROCK AR
1100 PM CST WED JAN 17 2018

NOTE: "FAIR" INDICATES FEW OR NO CLOUDS BELOW 12,000 FEET WITH NO
SIGNIFICANT WEATHER AND/OR OBSTRUCTIONS TO VISIBILITY.

ARZ001-003-010-029-180600-
NORTHWEST ARKANSAS

CITY           SKY/WX    TMP DP  RH WIND       PRES   REMARKS
FAYETTEVILLE   CLOUDY    12   7  80 CALM      30.53F
FORT SMITH     CLOUDY    19  10  68 CALM      30.60S
HARRISON       CLOUDY    18   9  68 SW3       30.50F
BENTONVILLE    CLOUDY    18   8  65 S5        30.53F WCI  11
ROGERS         CLOUDY    17   8  67 S9        30.51F WCI   6
SILOAM SPGS    CLOUDY    18   7  62 S5        30.53F WCI  11
HIGHFILL       CLOUDY    17   7  64 S7        30.51F WCI   8
$$

ARZ004-005-016-180600-
NORTH CENTRAL ARKANSAS

CITY           SKY/WX    TMP DP  RH WIND       PRES   REMARKS
BATESVILLE     CLOUDY    17  11  77 CALM      30.59F
FLIPPIN        CLOUDY    11   8  88 CALM      30.56F
MTN HOME       CLOUDY    17   8  67 CALM      30.52F
$$

ARZ040-041-180600-
WEST CENTRAL ARKANSAS

CITY           SKY/WX    TMP DP  RH WIND       PRES   REMARKS
MENA           CLOUDY    23  10  58 CALM      30.57R
MOUNT IDA      CLOUDY    16  11  80 CALM      30.56S
$$

ARZ009-017-025-026-028-180600-
NORTHEAST ARKANSAS

CITY           SKY/WX    TMP DP  RH WIND       PRES   REMARKS
JONESBORO      FAIR      17  14  88 S5        30.61S WCI  10
NEWPORT        FAIR      16  13  88 S7        30.62S WCI   6
BLYTHEVILLE    FAIR       8   8 100 S5        30.62F WCI   0
$$

ARZ022-023-033-042-044-180600-
CENTRAL ARKANSAS

CITY           SKY/WX    TMP DP  RH WIND       PRES   REMARKS
LITTLE ROCK    CLOUDY    16  11  80 CALM      30.64F
N LITTLE ROCK    N/A     17  11  77 CALM      30.60F
JACKSONVILLE   CLOUDY    12   9  85 CALM      30.61F
SEARCY         FAIR      13  13 100 SW3       30.63F
HOT SPRINGS    CLEAR     19  12  74 CALM      30.61F
RUSSELLVILLE   CLOUDY    14  10  84 CALM      30.59F
CLINTON        FAIR      12  10  92 CALM      30.60S
$$

ARZ036-180600-
EAST ARKANSAS

CITY           SKY/WX    TMP DP  RH WIND       PRES   REMARKS
WEST MEMPHIS   FAIR      10   9  95 SW3       30.63R
$$

ARZ050-053-066-070-073-180600-
SOUTHWEST ARKANSAS

CITY           SKY/WX    TMP DP  RH WIND       PRES   REMARKS
ARKADELPHIA    FAIR      13   7  77 CALM      30.65F
CAMDEN         FAIR      12   9  85 CALM      30.65S
TEXARKANA      CLOUDY    19  10  68 S3        30.64S
EL DORADO      FAIR      15  14  95 CALM      30.64S
DE QUEEN       CLOUDY    15  12  88 CALM      30.62S
$$

ARZ056-057-069-180600-
SOUTHEAST ARKANSAS

CITY           SKY/WX    TMP DP  RH WIND       PRES   REMARKS
PINE BLUFF     FAIR      12   9  87 CALM      30.65S
STUTTGART      FAIR      14  11  87 S3        30.64F
MONTICELLO     FAIR      14   9  80 CALM      30.64F

$$






USA.gov is the U.S. government's official web portal to all federal, state and local government web resources and services.